TimeWET,TemperatureF,Dew PointF,Humidity,Sea Level PressureIn,VisibilityMPH,Wind Direction,Wind SpeedMPH,Gust SpeedMPH,PrecipitationIn,Events,Conditions,WindDirDegrees,DateUTC
12:00 AM,48,41,70,29.99,6,South,3.5,,,,,190,2012-11-15 00:00:00
12:00 AM,48.2,41.0,76,29.95,-9999.0,South,3.5,-,N/A,,Clear,190,2012-11-15 00:00:00
12:30 AM,48.2,41.0,76,29.95,-9999.0,Variable,3.5,-,N/A,,Clear,0,2012-11-15 00:30:00
1:00 AM,50.0,42.8,76,29.95,-9999.0,Variable,3.5,-,N/A,,Clear,0,2012-11-15 01:00:00
1:30 AM,51.8,42.8,71,29.95,6.2,SSW,3.5,-,N/A,,Partly Cloudy,200,2012-11-15 01:30:00
2:00 AM,46.4,39.2,76,29.95,6.2,Variable,3.5,77.1,N/A,,Partly Cloudy,0,2012-11-15 02:00:00
2:30 AM,46.4,39.2,76,29.95,-9999.0,South,4.6,-,N/A,,Clear,170,2012-11-15 02:30:00
3:00 AM,45,38,68,29.99,6,SSE,3.5,,,,,150,2012-11-15 03:00:00
3:00 AM,44.6,39.2,81,29.95,-9999.0,SSE,3.5,-,N/A,,Clear,150,2012-11-15 03:00:00
3:30 AM,44.6,39.2,81,29.95,-9999.0,Variable,3.5,-,N/A,,Clear,0,2012-11-15 03:30:00
4:00 AM,46.4,39.2,76,29.95,6.2,South,5.8,-,N/A,,Partly Cloudy,190,2012-11-15 04:00:00
4:30 AM,46.4,39.2,76,29.95,6.2,Variable,2.3,-,N/A,,Mostly Cloudy,0,2012-11-15 04:30:00
5:00 AM,48.2,39.2,71,29.95,6.2,SSE,4.6,-,N/A,,Mostly Cloudy,160,2012-11-15 05:00:00
5:30 AM,48.2,39.2,71,29.95,-9999.0,South,6.9,-,N/A,,Clear,180,2012-11-15 05:30:00
6:00 AM,48,39,62,30.01,6,SSW,5.8,,,,,210,2012-11-15 06:00:00
6:00 AM,48.2,39.2,71,29.98,-9999.0,SSW,5.8,-,N/A,,Clear,210,2012-11-15 06:00:00
6:30 AM,46.4,39.2,76,29.98,-9999.0,South,8.1,-,N/A,,Clear,170,2012-11-15 06:30:00
7:00 AM,48.2,39.2,71,29.98,6.2,South,8.1,-,N/A,,Unknown,170,2012-11-15 07:00:00
8:00 AM,48.2,44.6,87,30.01,6.2,Variable,3.5,39.1,N/A,,Scattered Clouds,0,2012-11-15 08:00:00
9:00 AM,60,47,51,30.00,6,ESE,2.3,,,,Clear,120,2012-11-15 09:00:00
9:00 AM,59.0,48.2,67,30.01,6.2,SE,2.3,-,N/A,,Scattered Clouds,140,2012-11-15 09:00:00
10:00 AM,62.6,50.0,63,30.01,6.2,NE,2.3,-,N/A,,Scattered Clouds,40,2012-11-15 10:00:00
11:00 AM,64.4,48.2,56,30.04,6.2,North,4.6,-,N/A,,Partly Cloudy,360,2012-11-15 11:00:00
11:30 AM,66.2,50.0,56,30.01,6.2,ENE,4.6,-,N/A,,Partly Cloudy,70,2012-11-15 11:30:00
12:00 PM,66,48,42,29.98,6,ENE,4.6,,,,Clear,70,2012-11-15 12:00:00
1:00 PM,68.0,46.4,46,30.01,6.2,NNW,3.5,-,N/A,,Partly Cloudy,330,2012-11-15 13:00:00
2:00 PM,69.8,50.0,49,29.98,6.2,WNW,2.3,-,N/A,,Partly Cloudy,290,2012-11-15 14:00:00
3:00 PM,68.0,46.4,46,29.98,-9999.0,NNW,4.6,-,N/A,,Clear,330,2012-11-15 15:00:00
3:30 PM,68.0,46.4,46,29.98,-9999.0,NNW,6.9,-,N/A,,Clear,330,2012-11-15 15:30:00
4:00 PM,66.2,44.6,46,29.98,-9999.0,NNW,4.6,-,N/A,,Clear,340,2012-11-15 16:00:00
5:00 PM,64.4,48.2,56,30.01,-9999.0,NNW,2.3,-,N/A,,Clear,330,2012-11-15 17:00:00
6:00 PM,57,48,64,30.00,6,West,2.3,,,,Clear,260,2012-11-15 18:00:00
6:00 PM,57.2,48.2,72,30.01,-9999.0,West,2.3,-,N/A,,Clear,260,2012-11-15 18:00:00
7:00 PM,51.8,48.2,88,30.04,-9999.0,South,4.6,-,N/A,,Clear,180,2012-11-15 19:00:00
8:00 PM,51.8,48.2,88,30.04,-9999.0,South,6.9,-,N/A,,Clear,180,2012-11-15 20:00:00
9:00 PM,50,46,83,30.05,6,South,6.9,,,,,180,2012-11-15 21:00:00
9:00 PM,50.0,46.4,87,30.04,-9999.0,South,6.9,-,N/A,,Clear,180,2012-11-15 21:00:00
10:00 PM,50.0,46.4,87,30.04,-9999.0,SE,4.6,-,N/A,,Clear,140,2012-11-15 22:00:00
11:00 PM,50.0,46.4,87,30.04,-9999.0,SE,4.6,-,N/A,,Clear,140,2012-11-15 23:00:00